PD1VW-10 Weather Reports


time (UTC)temp
C
wind
direction
speed
KPH
gust
KPH
rain 1hr
cm
rain 24hr
cm
rain mn
cm
humidity
%
barometer
mb
20260504081030 13 48 0.0 1.6 0.00 0.30 0.00 99 1014.9
20260504045034 12 0.0 0.0 0.00 0.33 0.00 99 1013.3
20260504044031 12 0.0 0.0 0.00 0.33 0.00 99 1013.1
20260504043029 12 0.0 0.0 0.00 0.33 0.00 99 1013.1
20260504042026 12 0.0 0.0 0.00 0.33 0.00 99 1013.2
20260504041023 12 0.0 0.0 0.00 0.36 0.00 99 1013.1
20260504040021 12 266 3.2 4.8 0.00 0.41 0.00 99 1013.1
20260504035018 12 266 3.2 4.8 0.00 0.46 0.00 99 1013.1
20260504034016 12 0.0 0.0 0.00 0.46 0.00 99 1013.1
20260504033043 12 0.0 0.0 0.00 0.46 0.00 99 1013.1
20260504032121 12 0.0 0.0 0.00 0.46 0.00 99 1013.2
20260504031038 11 0.0 0.0 0.00 0.46 0.00 99 1013.4
20260504030055 11 0.0 0.0 0.00 0.46 0.00 99 1013.1
20260504025032 11 0.0 0.0 0.00 0.48 0.00 99 1013.1
20260504024050 11 0.0 0.0 0.00 0.48 0.00 99 1013.2
20260504023027 11 0.0 0.0 0.00 0.48 0.00 99 1013.1
20260504022024 11 0.0 0.0 0.00 0.48 0.00 99 1013.1
20260504021042 11 0.0 0.0 0.00 0.48 0.00 99 1013.1
20260504020019 11 0.0 0.0 0.00 0.48 0.00 99 1012.9
20260504015016 11 0.0 0.0 0.00 0.48 0.00 99 1013.0
20260504014044 11 0.0 0.0 0.00 0.48 0.00 99 1013.2
20260504013041 11 0.0 0.0 0.00 0.48 0.00 99 1013.1
20260504012038 11 0.0 0.0 0.00 0.48 0.00 99 1013.3
20260504011036 11 0.0 0.0 0.00 0.48 0.00 99 1013.3
20260504010033 11 0.0 0.0 0.00 0.48 0.00 99 1013.1
20260504005051 11 0.0 0.0 0.00 0.48 0.00 98 1013.2
20260504004027 11 0.0 0.0 0.00 0.48 0.00 98 1012.8
20260504003025 12 0.0 0.0 0.00 0.48 0.00 98 1012.8
20260504002022 12 0.0 0.0 0.00 0.48 0.00 98 1012.9
20260504001019 12 0.0 0.0 0.00 0.48 0.00 98 1012.9
20260504000037 12 0.0 0.0 0.00 0.48 0.00 98 1013.2
20260503235044 11 0.0 0.0 0.00 0.48 0.00 98 1013.0
20260503234041 12 0.0 0.0 0.00 0.48 0.00 98 1013.0
20260503233038 12 0.0 0.0 0.00 0.51 0.00 98 1013.0
20260503232035 11 0.0 0.0 0.00 0.58 0.00 97 1013.0
20260503231033 11 0.0 0.0 0.00 0.64 0.00 97 1013.0
20260503230030 11 266 4.8 4.8 0.00 0.66 0.00 97 1012.7
20260503225027 10 266 1.6 3.2 0.00 0.74 0.00 96 1012.8
20260503224025 12 0.0 0.0 0.00 0.76 0.00 95 1012.6
20260503223022 12 0.0 0.0 0.00 0.76 0.00 95 1012.6
20260503222019 12 0.0 0.0 0.00 0.76 0.00 94 1012.6
20260503221017 12 0.0 0.0 0.00 0.76 0.00 94 1012.6
20260503220044 12 0.0 0.0 0.00 0.76 0.76 94 1012.7
20260503215041 13 0.0 0.0 0.00 0.76 0.76 94 1012.5
20260503214039 13 266 1.6 1.6 0.00 0.76 0.76 94 1012.7
20260503213036 13 266 1.6 3.2 0.00 0.76 0.76 93 1012.8
20260503212033 13 266 1.6 3.2 0.00 0.76 0.76 93 1012.7
20260503211051 13 0.0 0.0 0.00 0.76 0.76 93 1012.5
20260503210028 13 0.0 0.0 0.00 0.76 0.76 92 1012.5
20260503205026 13 271 3.2 3.2 0.00 0.76 0.76 92 1012.4
20260503204023 13 266 1.6 1.6 0.00 0.76 0.76 92 1012.4
20260503203020 14 265 0.0 1.6 0.00 0.76 0.76 92 1012.5
20260503202018 14 265 1.6 1.6 0.00 0.76 0.76 91 1012.3
20260503201015 14 261 1.6 1.6 0.00 0.76 0.76 91 1012.4
20260503200042 14 260 3.2 3.2 0.00 0.76 0.76 91 1012.4
20260503195040 14 257 1.6 1.6 0.00 0.76 0.76 91 1012.3
20260503194117 14 262 1.6 1.6 0.00 0.76 0.76 91 1012.2
20260503193034 14 258 1.6 1.6 0.00 0.76 0.76 91 1012.2
20260503192112 14 254 1.6 1.6 0.00 0.76 0.76 90 1012.0
20260503191029 14 255 0.0 1.6 0.00 0.76 0.76 90 1011.9
20260503190046 14 259 1.6 3.2 0.00 0.76 0.76 90 1011.9
20260503185044 14 256 1.6 3.2 0.00 0.76 0.76 90 1011.8
20260503184021 14 260 3.2 3.2 0.00 0.76 0.76 89 1011.6
20260503183018 15 243 4.8 4.8 0.00 0.76 0.76 87 1011.5
20260503182016 15 279 6.4 6.4 0.00 0.76 0.76 86 1011.4
20260503181203 15 270 6.4 9.7 0.00 0.76 0.76 86 1011.2
20260503180040 15 249 6.4 9.7 0.00 0.76 0.76 87 1011.2
20260503175038 15 242 6.4 6.4 0.00 0.76 0.76 86 1011.3
20260503174035 15 211 4.8 6.4 0.00 0.76 0.76 87 1011.2
20260503173032 15 252 6.4 12.9 0.00 0.76 0.76 87 1011.2
20260503172030 15 228 6.4 9.7 0.00 0.76 0.76 86 1011.2
20260503171027 16 265 6.4 9.7 0.00 0.76 0.76 85 1011.0
20260503131024 14 224 6.4 6.4 0.00 0.76 0.76 96 1011.8